| time (UTC) | temp C | wind direction | speed KPH | gust KPH | rain 1hr cm | rain 24hr cm | rain mn cm | humidity % | barometer mb |
| 20260902060503 | 11 | 96 | 1.6 | 3.2 | 0.00 | 0.00 | 0.00 | 96 | 1023.2 |
| 20260902060003 | 11 | 97 | 1.6 | 3.2 | 0.00 | 0.00 | 0.00 | 96 | 1023.2 |
| 20260902055503 | 11 | 101 | 0.0 | 3.2 | 0.00 | 0.00 | 0.00 | 96 | 1022.9 |
| 20260902055003 | 11 | 100 | 0.0 | 3.2 | 0.00 | 0.00 | 0.00 | 96 | 1023.1 |
| 20260902054524 | 11 | 0 | 0.0 | 0.0 | 0.00 | 0.00 | 0.00 | 96 | 1023.0 |
| 20260902054003 | 11 | 0 | 0.0 | 0.0 | 0.00 | 0.00 | 0.00 | 96 | 1022.9 |
| 20260902053503 | 11 | 0 | 0.0 | 0.0 | 0.00 | 0.00 | 0.00 | 96 | 1022.9 |
| 20260902053003 | 11 | 0 | 0.0 | 0.0 | 0.00 | 0.00 | 0.00 | 95 | 1022.9 |
| 20260902052503 | 11 | 0 | 0.0 | 0.0 | 0.00 | 0.00 | 0.00 | 95 | 1022.9 |
| 20260902052024 | 11 | 129 | 0.0 | 1.6 | 0.00 | 0.00 | 0.00 | 95 | 1022.8 |
| 20260902051503 | 12 | 129 | 0.0 | 1.6 | 0.00 | 0.00 | 0.00 | 95 | 1022.9 |
| 20260902051003 | 12 | 113 | 0.0 | 1.6 | 0.00 | 0.00 | 0.00 | 95 | 1022.5 |
| 20260902050503 | 12 | 116 | 0.0 | 1.6 | 0.00 | 0.00 | 0.00 | 95 | 1022.8 |
| 20260902050006 | 12 | 131 | 0.0 | 1.6 | 0.00 | 0.00 | 0.00 | 95 | 1022.4 |
| 20260902045503 | 12 | 129 | 0.0 | 1.6 | 0.00 | 0.00 | 0.00 | 96 | 1022.5 |
| 20260902045003 | 12 | 0 | 0.0 | 0.0 | 0.00 | 0.00 | 0.00 | 96 | 1022.5 |
| 20260902044503 | 12 | 184 | 0.0 | 1.6 | 0.00 | 0.00 | 0.00 | 95 | 1022.5 |
| 20260902044024 | 12 | 224 | 0.0 | 1.6 | 0.00 | 0.00 | 0.00 | 95 | 1022.6 |
| 20260902043503 | 12 | 236 | 0.0 | 1.6 | 0.00 | 0.00 | 0.00 | 95 | 1022.5 |
| 20260902043003 | 12 | 0 | 0.0 | 0.0 | 0.00 | 0.00 | 0.00 | 95 | 1022.1 |
| 20260902042524 | 12 | 0 | 0.0 | 0.0 | 0.00 | 0.00 | 0.00 | 95 | 1022.5 |
| 20260902042003 | 12 | 129 | 0.0 | 1.6 | 0.00 | 0.00 | 0.00 | 95 | 1022.3 |
| 20260902041524 | 12 | 121 | 0.0 | 1.6 | 0.00 | 0.00 | 0.00 | 95 | 1022.4 |
| 20260902041003 | 12 | 122 | 0.0 | 1.6 | 0.00 | 0.00 | 0.00 | 95 | 1022.2 |
| 20260902040503 | 12 | 127 | 0.0 | 1.6 | 0.00 | 0.00 | 0.00 | 95 | 1022.2 |
| 20260902040003 | 12 | 137 | 0.0 | 1.6 | 0.00 | 0.00 | 0.00 | 95 | 1022.6 |
| 20260902035504 | 12 | 137 | 0.0 | 1.6 | 0.00 | 0.00 | 0.00 | 95 | 1022.5 |
| 20260902035003 | 12 | 0 | 0.0 | 0.0 | 0.00 | 0.00 | 0.00 | 95 | 1022.3 |
| 20260902034503 | 12 | 0 | 0.0 | 0.0 | 0.00 | 0.00 | 0.00 | 95 | 1022.3 |
| 20260902034003 | 12 | 0 | 0.0 | 0.0 | 0.00 | 0.00 | 0.00 | 94 | 1022.3 |
| 20260902033524 | 12 | 0 | 0.0 | 0.0 | 0.00 | 0.00 | 0.00 | 94 | 1022.3 |
| 20260902033003 | 12 | 0 | 0.0 | 0.0 | 0.00 | 0.00 | 0.00 | 94 | 1022.3 |
| 20260902032503 | 12 | 133 | 0.0 | 1.6 | 0.00 | 0.00 | 0.00 | 94 | 1022.5 |
| 20260902032024 | 13 | 131 | 0.0 | 1.6 | 0.00 | 0.00 | 0.00 | 94 | 1022.2 |
| 20260902031503 | 13 | 120 | 0.0 | 1.6 | 0.00 | 0.00 | 0.00 | 94 | 1022.3 |
| 20260902031003 | 13 | 120 | 0.0 | 1.6 | 0.00 | 0.00 | 0.00 | 94 | 1022.2 |
| 20260902030503 | 13 | 0 | 0.0 | 0.0 | 0.00 | 0.00 | 0.00 | 94 | 1022.3 |
| 20260902030025 | 13 | 0 | 0.0 | 0.0 | 0.00 | 0.00 | 0.00 | 94 | 1022.2 |
| 20260902025504 | 13 | 0 | 0.0 | 0.0 | 0.00 | 0.00 | 0.00 | 94 | 1022.2 |
| 20260902025003 | 13 | 0 | 0.0 | 0.0 | 0.00 | 0.00 | 0.00 | 94 | 1022.2 |
| 20260902024503 | 13 | 0 | 0.0 | 0.0 | 0.00 | 0.00 | 0.00 | 94 | 1022.4 |
| 20260902024003 | 13 | 0 | 0.0 | 0.0 | 0.00 | 0.00 | 0.00 | 93 | 1022.1 |
| 20260902023503 | 13 | 0 | 0.0 | 0.0 | 0.00 | 0.00 | 0.00 | 93 | 1022.1 |
| 20260902023003 | 13 | 0 | 0.0 | 0.0 | 0.00 | 0.00 | 0.00 | 93 | 1022.0 |
| 20260902022503 | 13 | 0 | 0.0 | 0.0 | 0.00 | 0.00 | 0.00 | 93 | 1022.1 |
| 20260902022003 | 13 | 0 | 0.0 | 0.0 | 0.00 | 0.00 | 0.00 | 93 | 1022.1 |
| 20260902021503 | 13 | 0 | 0.0 | 0.0 | 0.00 | 0.00 | 0.00 | 92 | 1022.0 |
| 20260902021003 | 13 | 0 | 0.0 | 0.0 | 0.00 | 0.00 | 0.00 | 93 | 1022.4 |
| 20260902020503 | 13 | 0 | 0.0 | 0.0 | 0.00 | 0.00 | 0.00 | 93 | 1022.1 |
| 20260902020024 | 13 | 0 | 0.0 | 0.0 | 0.00 | 0.00 | 0.00 | 93 | 1022.1 |
| 20260902015503 | 13 | 0 | 0.0 | 0.0 | 0.00 | 0.00 | 0.00 | 92 | 1022.1 |
| 20260902015004 | 13 | 0 | 0.0 | 0.0 | 0.00 | 0.00 | 0.00 | 92 | 1022.2 |
| 20260902014504 | 14 | 0 | 0.0 | 0.0 | 0.00 | 0.00 | 0.00 | 92 | 1022.1 |
| 20260902014003 | 14 | 107 | 0.0 | 1.6 | 0.00 | 0.00 | 0.00 | 92 | 1022.0 |
| 20260902013503 | 14 | 108 | 0.0 | 3.2 | 0.00 | 0.00 | 0.00 | 91 | 1022.0 |
| 20260902013003 | 14 | 104 | 1.6 | 3.2 | 0.00 | 0.00 | 0.00 | 91 | 1022.4 |
| 20260902012524 | 14 | 97 | 1.6 | 3.2 | 0.00 | 0.00 | 0.00 | 91 | 1022.2 |
| 20260902012003 | 14 | 90 | 1.6 | 3.2 | 0.00 | 0.00 | 0.00 | 91 | 1022.4 |
| 20260902011503 | 15 | 85 | 0.0 | 3.2 | 0.00 | 0.00 | 0.00 | 90 | 1022.4 |
| 20260902011003 | 15 | 0 | 0.0 | 0.0 | 0.00 | 0.00 | 0.00 | 90 | 1022.2 |
| 20260902010503 | 15 | 0 | 0.0 | 0.0 | 0.00 | 0.00 | 0.00 | 89 | 1022.1 |
| 20260902010004 | 15 | 0 | 0.0 | 0.0 | 0.00 | 0.00 | 0.00 | 89 | 1022.4 |
| 20260902005503 | 15 | 0 | 0.0 | 0.0 | 0.00 | 0.00 | 0.00 | 89 | 1022.3 |
| 20260902005003 | 15 | 0 | 0.0 | 0.0 | 0.00 | 0.00 | 0.00 | 89 | 1022.3 |
| 20260902004503 | 15 | 0 | 0.0 | 0.0 | 0.00 | 0.00 | 0.00 | 91 | 1022.3 |
| 20260902004003 | 15 | 0 | 0.0 | 0.0 | 0.00 | 0.00 | 0.00 | 91 | 1022.3 |
| 20260902003503 | 15 | 0 | 0.0 | 0.0 | 0.00 | 0.00 | 0.00 | 90 | 1022.3 |
| 20260902003003 | 15 | 0 | 0.0 | 0.0 | 0.00 | 0.00 | 0.00 | 90 | 1022.2 |
| 20260902002503 | 15 | 118 | 0.0 | 1.6 | 0.00 | 0.00 | 0.00 | 89 | 1022.0 |
| 20260902002003 | 15 | 118 | 0.0 | 1.6 | 0.00 | 0.00 | 0.00 | 89 | 1021.9 |
| 20260902001503 | 15 | 0 | 0.0 | 0.0 | 0.00 | 0.00 | 0.00 | 89 | 1022.0 |
| 20260902001003 | 15 | 0 | 0.0 | 0.0 | 0.00 | 0.00 | 0.00 | 89 | 1022.0 |
| 20260902000503 | 15 | 96 | 0.0 | 3.2 | 0.00 | 0.00 | 0.00 | 88 | 1022.2 |
| 20260902000025 | 16 | 96 | 0.0 | 3.2 | 0.00 | 0.00 | 0.00 | 87 | 1022.1 |
| 20260901235503 | 16 | 95 | 0.0 | 3.2 | 0.00 | 0.00 | 0.00 | 87 | 1022.0 |
| 20260901235003 | 16 | 0 | 0.0 | 0.0 | 0.00 | 0.00 | 0.00 | 87 | 1022.0 |
| 20260901234503 | 16 | 0 | 0.0 | 0.0 | 0.00 | 0.00 | 0.00 | 88 | 1021.9 |
| 20260901234003 | 16 | 0 | 0.0 | 0.0 | 0.00 | 0.00 | 0.00 | 88 | 1021.9 |
| 20260901233503 | 16 | 0 | 0.0 | 0.0 | 0.00 | 0.00 | 0.00 | 87 | 1021.9 |
| 20260901233003 | 16 | 0 | 0.0 | 0.0 | 0.00 | 0.00 | 0.00 | 87 | 1021.7 |
| 20260901232503 | 16 | 0 | 0.0 | 0.0 | 0.00 | 0.00 | 0.00 | 88 | 1021.7 |
| 20260901232003 | 16 | 0 | 0.0 | 0.0 | 0.00 | 0.00 | 0.00 | 88 | 1021.5 |
| 20260901231503 | 16 | 0 | 0.0 | 0.0 | 0.00 | 0.00 | 0.00 | 88 | 1021.7 |
| 20260901231003 | 16 | 0 | 0.0 | 0.0 | 0.00 | 0.00 | 0.00 | 88 | 1021.7 |
| 20260901230503 | 16 | 0 | 0.0 | 0.0 | 0.00 | 0.00 | 0.00 | 88 | 1021.7 |
| 20260901230025 | 16 | 247 | 0.0 | 1.6 | 0.00 | 0.00 | 0.00 | 88 | 1021.5 |
| 20260901225503 | 16 | 229 | 0.0 | 1.6 | 0.00 | 0.00 | 0.00 | 86 | 1021.6 |
| 20260901225024 | 17 | 121 | 0.0 | 1.6 | 0.00 | 0.00 | 0.00 | 84 | 1021.6 |
| 20260901224524 | 17 | 137 | 0.0 | 1.6 | 0.00 | 0.00 | 0.00 | 84 | 1021.6 |
| 20260901224003 | 17 | 108 | 0.0 | 1.6 | 0.00 | 0.00 | 0.00 | 84 | 1021.6 |
| 20260901223503 | 17 | 102 | 0.0 | 1.6 | 0.00 | 0.00 | 0.00 | 83 | 1021.8 |
| 20260901223003 | 17 | 250 | 0.0 | 1.6 | 0.00 | 0.00 | 0.00 | 86 | 1021.7 |
| 20260901222503 | 16 | 277 | 0.0 | 3.2 | 0.00 | 0.00 | 0.00 | 86 | 1021.6 |
| 20260901222003 | 17 | 308 | 0.0 | 3.2 | 0.00 | 0.00 | 0.00 | 85 | 1021.4 |
| 20260901221503 | 17 | 0 | 0.0 | 0.0 | 0.00 | 0.00 | 0.00 | 84 | 1021.7 |
| 20260901221003 | 17 | 0 | 0.0 | 0.0 | 0.00 | 0.00 | 0.00 | 84 | 1024.4 |
| 20260901220503 | 18 | 0 | 0.0 | 0.0 | 0.00 | 0.00 | 0.00 | 83 | 1024.4 |
| 20260901220024 | 18 | 0 | 0.0 | 0.0 | 0.00 | 0.00 | 0.00 | 81 | 1024.4 |
| 20260901215503 | 19 | 198 | 0.0 | 1.6 | 0.00 | 0.00 | 0.00 | 78 | 1024.3 |
| 20260901215024 | 19 | 198 | 0.0 | 1.6 | 0.00 | 0.00 | 0.00 | 78 | 1024.3 |
| 20260901214505 | 19 | 0 | 0.0 | 0.0 | 0.00 | 0.00 | 0.00 | 79 | 1024.3 |
| 20260901214003 | 19 | 0 | 0.0 | 0.0 | 0.00 | 0.00 | 0.00 | 78 | 1024.2 |
| 20260901213503 | 19 | 121 | 0.0 | 1.6 | 0.00 | 0.00 | 0.00 | 79 | 1024.3 |
| 20260901213003 | 18 | 94 | 0.0 | 3.2 | 0.00 | 0.00 | 0.00 | 79 | 1024.3 |
| 20260901212503 | 18 | 72 | 1.6 | 4.8 | 0.00 | 0.00 | 0.00 | 80 | 1024.2 |
| 20260901212003 | 19 | 67 | 1.6 | 4.8 | 0.00 | 0.00 | 0.00 | 79 | 1024.2 |
| 20260901211503 | 19 | 82 | 0.0 | 3.2 | 0.00 | 0.00 | 0.00 | 78 | 1024.1 |
| 20260901211003 | 20 | 219 | 0.0 | 3.2 | 0.00 | 0.00 | 0.00 | 75 | 1024.0 |
| 20260901210524 | 20 | 226 | 1.6 | 3.2 | 0.00 | 0.00 | 0.00 | 73 | 1024.0 |
| 20260901210004 | 21 | 225 | 1.6 | 3.2 | 0.00 | 0.00 | 0.00 | 71 | 1024.0 |
| 20260901205503 | 21 | 231 | 1.6 | 3.2 | 0.00 | 0.00 | 0.00 | 71 | 1023.9 |
| 20260901205003 | 21 | 229 | 1.6 | 4.8 | 0.00 | 0.00 | 0.00 | 70 | 1023.7 |
| 20260901204503 | 21 | 219 | 1.6 | 4.8 | 0.00 | 0.00 | 0.00 | 69 | 1023.6 |
| 20260901204005 | 21 | 224 | 3.2 | 9.7 | 0.00 | 0.00 | 0.00 | 69 | 1023.7 |
| 20260901203503 | 21 | 226 | 3.2 | 9.7 | 0.00 | 0.00 | 0.00 | 68 | 1023.5 |
| 20260901203003 | 21 | 229 | 3.2 | 6.4 | 0.00 | 0.00 | 0.00 | 68 | 1023.6 |
| 20260901202503 | 21 | 240 | 3.2 | 6.4 | 0.00 | 0.00 | 0.00 | 68 | 1023.4 |
| 20260901202003 | 22 | 232 | 3.2 | 9.7 | 0.00 | 0.00 | 0.00 | 67 | 1023.3 |
| 20260901201503 | 22 | 222 | 3.2 | 9.7 | 0.00 | 0.00 | 0.00 | 67 | 1023.2 |
| 20260901201003 | 22 | 218 | 3.2 | 9.7 | 0.00 | 0.00 | 0.00 | 66 | 1023.1 |
| 20260901200524 | 22 | 218 | 4.8 | 9.7 | 0.00 | 0.00 | 0.00 | 65 | 1023.0 |
| 20260901200004 | 22 | 214 | 4.8 | 9.7 | 0.00 | 0.00 | 0.00 | 64 | 1023.0 |
| 20260901195503 | 22 | 206 | 3.2 | 9.7 | 0.00 | 0.00 | 0.00 | 64 | 1022.8 |
| 20260901195003 | 22 | 212 | 3.2 | 9.7 | 0.00 | 0.00 | 0.00 | 63 | 1022.9 |
| 20260901194503 | 22 | 213 | 1.6 | 4.8 | 0.00 | 0.00 | 0.00 | 63 | 1022.8 |
| 20260901194003 | 22 | 209 | 1.6 | 4.8 | 0.00 | 0.00 | 0.00 | 61 | 1022.4 |
| 20260901193503 | 23 | 215 | 1.6 | 4.8 | 0.00 | 0.00 | 0.00 | 59 | 1022.6 |
| 20260901193024 | 23 | 220 | 1.6 | 4.8 | 0.00 | 0.00 | 0.00 | 58 | 1022.5 |
| 20260901192503 | 23 | 219 | 1.6 | 6.4 | 0.00 | 0.00 | 0.00 | 56 | 1022.1 |
| 20260901192003 | 23 | 213 | 3.2 | 6.4 | 0.00 | 0.00 | 0.00 | 55 | 1022.2 |
| 20260901191503 | 24 | 217 | 3.2 | 6.4 | 0.00 | 0.00 | 0.00 | 54 | 1022.3 |
| 20260901191003 | 24 | 218 | 3.2 | 9.7 | 0.00 | 0.00 | 0.00 | 52 | 1022.0 |
| 20260901190503 | 24 | 218 | 3.2 | 9.7 | 0.00 | 0.00 | 0.00 | 51 | 1022.1 |
| 20260901190004 | 25 | 223 | 3.2 | 6.4 | 0.00 | 0.00 | 0.00 | 50 | 1022.0 |
| 20260901185503 | 25 | 230 | 3.2 | 6.4 | 0.00 | 0.00 | 0.00 | 49 | 1021.8 |
| 20260901185003 | 25 | 237 | 4.8 | 9.7 | 0.00 | 0.00 | 0.00 | 48 | 1022.0 |
| 20260901184504 | 26 | 242 | 4.8 | 9.7 | 0.00 | 0.00 | 0.00 | 47 | 1018.9 |
| 20260901184003 | 26 | 250 | 4.8 | 11.3 | 0.00 | 0.00 | 0.00 | 46 | 1019.0 |
| 20260901183503 | 26 | 251 | 6.4 | 12.9 | 0.00 | 0.00 | 0.00 | 46 | 1021.6 |
| 20260901183003 | 26 | 251 | 6.4 | 14.5 | 0.00 | 0.00 | 0.00 | 45 | 1021.6 |
| 20260901182524 | 26 | 254 | 6.4 | 14.5 | 0.00 | 0.00 | 0.00 | 45 | 1021.6 |
| 20260901182024 | 27 | 250 | 4.8 | 12.9 | 0.00 | 0.00 | 0.00 | 46 | 1021.5 |
| 20260901181503 | 27 | 253 | 4.8 | 11.3 | 0.00 | 0.00 | 0.00 | 46 | 1021.4 |
| 20260901181003 | 27 | 260 | 6.4 | 14.5 | 0.00 | 0.00 | 0.00 | 46 | 1021.5 |
| 20260901180503 | 27 | 263 | 8.0 | 14.5 | 0.00 | 0.00 | 0.00 | 45 | 1021.4 |
| 20260901180004 | 27 | 264 | 8.0 | 16.1 | 0.00 | 0.00 | 0.00 | 45 | 1021.2 |
| 20260901175503 | 27 | 263 | 8.0 | 16.1 | 0.00 | 0.00 | 0.00 | 44 | 1021.3 |
| 20260901175004 | 27 | 264 | 8.0 | 14.5 | 0.00 | 0.00 | 0.00 | 44 | 1021.2 |
| 20260901174524 | 28 | 267 | 8.0 | 14.5 | 0.00 | 0.00 | 0.00 | 44 | 1021.3 |
| 20260901174003 | 28 | 266 | 8.0 | 17.7 | 0.00 | 0.00 | 0.00 | 44 | 1021.5 |
| 20260901173503 | 28 | 262 | 9.7 | 17.7 | 0.00 | 0.00 | 0.00 | 43 | 1021.2 |
| 20260901173003 | 28 | 257 | 9.7 | 16.1 | 0.00 | 0.00 | 0.00 | 43 | 1021.1 |
| 20260901172503 | 28 | 255 | 9.7 | 17.7 | 0.00 | 0.00 | 0.00 | 43 | 1021.1 |
| 20260901172024 | 28 | 253 | 9.7 | 17.7 | 0.00 | 0.00 | 0.00 | 42 | 1021.0 |
| 20260901171503 | 29 | 251 | 9.7 | 16.1 | 0.00 | 0.00 | 0.00 | 42 | 1021.1 |
| 20260901171003 | 29 | 247 | 6.4 | 14.5 | 0.00 | 0.00 | 0.00 | 40 | 1021.1 |
| 20260901170503 | 30 | 244 | 4.8 | 12.9 | 0.00 | 0.00 | 0.00 | 36 | 1021.1 |
| 20260901170003 | 29 | 237 | 4.8 | 12.9 | 0.00 | 0.00 | 0.00 | 37 | 1020.9 |
| 20260901165503 | 30 | 222 | 4.8 | 11.3 | 0.00 | 0.00 | 0.00 | 37 | 1020.9 |
| 20260901165004 | 30 | 228 | 4.8 | 11.3 | 0.00 | 0.00 | 0.00 | 35 | 1020.6 |
| 20260901164524 | 30 | 234 | 6.4 | 12.9 | 0.00 | 0.00 | 0.00 | 34 | 1020.9 |
| 20260901164003 | 29 | 235 | 6.4 | 12.9 | 0.00 | 0.00 | 0.00 | 35 | 1020.9 |
| 20260901163503 | 29 | 232 | 4.8 | 12.9 | 0.00 | 0.00 | 0.00 | 35 | 1020.8 |
| 20260901163003 | 30 | 210 | 3.2 | 11.3 | 0.00 | 0.00 | 0.00 | 34 | 1020.6 |
| 20260901162503 | 30 | 207 | 3.2 | 6.4 | 0.00 | 0.00 | 0.00 | 33 | 1021.1 |
| 20260901162003 | 30 | 208 | 3.2 | 11.3 | 0.00 | 0.00 | 0.00 | 33 | 1020.9 |
| 20260901161503 | 30 | 207 | 3.2 | 11.3 | 0.00 | 0.00 | 0.00 | 31 | 1020.9 |
| 20260901161004 | 30 | 229 | 3.2 | 11.3 | 0.00 | 0.00 | 0.00 | 32 | 1021.0 |
| 20260901160503 | 28 | 238 | 4.8 | 11.3 | 0.00 | 0.00 | 0.00 | 33 | 1021.0 |
| 20260901160004 | 29 | 230 | 3.2 | 9.7 | 0.00 | 0.00 | 0.00 | 32 | 1021.0 |
| 20260901155503 | 29 | 232 | 4.8 | 11.3 | 0.00 | 0.00 | 0.00 | 30 | 1021.1 |
| 20260901155003 | 29 | 243 | 4.8 | 11.3 | 0.00 | 0.00 | 0.00 | 30 | 1021.1 |
| 20260901154503 | 28 | 238 | 3.2 | 9.7 | 0.00 | 0.00 | 0.00 | 32 | 1020.9 |
| 20260901154003 | 29 | 224 | 3.2 | 6.4 | 0.00 | 0.00 | 0.00 | 31 | 1021.0 |
| 20260901153503 | 28 | 237 | 3.2 | 9.7 | 0.00 | 0.00 | 0.00 | 29 | 1021.1 |
| 20260901153003 | 28 | 242 | 3.2 | 9.7 | 0.00 | 0.00 | 0.00 | 31 | 1021.3 |
| 20260901152524 | 28 | 258 | 3.2 | 9.7 | 0.00 | 0.00 | 0.00 | 30 | 1021.0 |
| 20260901152003 | 28 | 267 | 4.8 | 11.3 | 0.00 | 0.00 | 0.00 | 30 | 1021.3 |
| 20260901151503 | 28 | 245 | 3.2 | 11.3 | 0.00 | 0.00 | 0.00 | 31 | 1021.2 |
| 20260901151003 | 28 | 233 | 3.2 | 11.3 | 0.00 | 0.00 | 0.00 | 28 | 1021.4 |
| 20260901150524 | 28 | 249 | 4.8 | 12.9 | 0.00 | 0.00 | 0.00 | 28 | 1021.3 |
| 20260901150004 | 28 | 260 | 4.8 | 12.9 | 0.00 | 0.00 | 0.00 | 30 | 1021.4 |
| 20260901145504 | 28 | 240 | 3.2 | 11.3 | 0.00 | 0.00 | 0.00 | 33 | 1021.4 |
| 20260901145003 | 28 | 198 | 1.6 | 6.4 | 0.00 | 0.00 | 0.00 | 32 | 1021.5 |
| 20260901144524 | 27 | 213 | 1.6 | 12.9 | 0.00 | 0.00 | 0.00 | 34 | 1021.6 |
| 20260901144003 | 28 | 239 | 3.2 | 12.9 | 0.00 | 0.00 | 0.00 | 34 | 1021.5 |
| 20260901143503 | 27 | 266 | 3.2 | 11.3 | 0.00 | 0.00 | 0.00 | 32 | 1021.5 |
| 20260901143024 | 27 | 273 | 3.2 | 11.3 | 0.00 | 0.00 | 0.00 | 35 | 1021.6 |
| 20260901142524 | 27 | 263 | 4.8 | 11.3 | 0.00 | 0.00 | 0.00 | 31 | 1021.6 |
| 20260901142024 | 26 | 267 | 4.8 | 12.9 | 0.00 | 0.00 | 0.00 | 36 | 1021.5 |
| 20260901141503 | 27 | 239 | 4.8 | 12.9 | 0.00 | 0.00 | 0.00 | 37 | 1021.6 |
| 20260901141003 | 27 | 237 | 3.2 | 9.7 | 0.00 | 0.00 | 0.00 | 38 | 1021.7 |
| 20260901140503 | 26 | 252 | 4.8 | 9.7 | 0.00 | 0.00 | 0.00 | 38 | 1021.8 |
| 20260901140004 | 26 | 237 | 4.8 | 9.7 | 0.00 | 0.00 | 0.00 | 39 | 1021.8 |
| 20260901135504 | 26 | 236 | 3.2 | 9.7 | 0.00 | 0.00 | 0.00 | 39 | 1021.9 |
| 20260901135003 | 26 | 205 | 3.2 | 11.3 | 0.00 | 0.00 | 0.00 | 37 | 1022.0 |
| 20260901134503 | 26 | 182 | 3.2 | 11.3 | 0.00 | 0.00 | 0.00 | 39 | 1021.9 |
| 20260901134003 | 26 | 129 | 3.2 | 11.3 | 0.00 | 0.00 | 0.00 | 40 | 1022.1 |
| 20260901133524 | 25 | 126 | 3.2 | 11.3 | 0.00 | 0.00 | 0.00 | 42 | 1022.2 |
| 20260901133004 | 25 | 148 | 3.2 | 12.9 | 0.00 | 0.00 | 0.00 | 41 | 1022.4 |
| 20260901132525 | 26 | 184 | 3.2 | 12.9 | 0.00 | 0.00 | 0.00 | 41 | 1022.4 |
| 20260901132003 | 26 | 219 | 3.2 | 9.7 | 0.00 | 0.00 | 0.00 | 41 | 1022.5 |
| 20260901131503 | 26 | 202 | 1.6 | 6.4 | 0.00 | 0.00 | 0.00 | 40 | 1022.6 |
| 20260901131003 | 26 | 172 | 1.6 | 6.4 | 0.00 | 0.00 | 0.00 | 42 | 1022.5 |
| 20260901130503 | 25 | 178 | 1.6 | 4.8 | 0.00 | 0.00 | 0.00 | 42 | 1022.9 |
| 20260901130003 | 25 | 281 | 1.6 | 4.8 | 0.00 | 0.00 | 0.00 | 43 | 1022.9 |
| 20260901125503 | 25 | 248 | 3.2 | 9.7 | 0.00 | 0.00 | 0.00 | 45 | 1022.9 |
| 20260901125024 | 25 | 248 | 3.2 | 9.7 | 0.00 | 0.00 | 0.00 | 44 | 1023.1 |
| 20260901124504 | 23 | 260 | 3.2 | 9.7 | 0.00 | 0.00 | 0.00 | 42 | 1023.3 |
| 20260901124003 | 24 | 281 | 4.8 | 11.3 | 0.00 | 0.00 | 0.00 | 46 | 1023.2 |
| 20260901123503 | 24 | 283 | 3.2 | 11.3 | 0.00 | 0.00 | 0.00 | 46 | 1023.2 |
| 20260901123003 | 24 | 149 | 1.6 | 4.8 | 0.00 | 0.00 | 0.00 | 46 | 1023.3 |
| 20260901122503 | 24 | 162 | 1.6 | 6.4 | 0.00 | 0.00 | 0.00 | 48 | 1023.3 |
| 20260901122004 | 24 | 184 | 1.6 | 6.4 | 0.00 | 0.00 | 0.00 | 49 | 1023.4 |
| 20260901121503 | 24 | 174 | 1.6 | 6.4 | 0.00 | 0.00 | 0.00 | 49 | 1023.4 |
| 20260901121025 | 23 | 173 | 1.6 | 4.8 | 0.00 | 0.00 | 0.00 | 50 | 1023.4 |
| 20260901120503 | 23 | 174 | 1.6 | 4.8 | 0.00 | 0.00 | 0.00 | 49 | 1020.1 |
| 20260901120004 | 23 | 152 | 3.2 | 4.8 | 0.00 | 0.00 | 0.00 | 51 | 1020.1 |
| 20260901115503 | 22 | 152 | 3.2 | 4.8 | 0.00 | 0.00 | 0.00 | 54 | 1020.0 |
| 20260901115003 | 23 | 166 | 1.6 | 4.8 | 0.00 | 0.00 | 0.00 | 51 | 1020.1 |
| 20260901114503 | 22 | 165 | 1.6 | 6.4 | 0.00 | 0.00 | 0.00 | 53 | 1020.2 |
| 20260901114003 | 22 | 141 | 3.2 | 6.4 | 0.00 | 0.00 | 0.00 | 54 | 1020.2 |
| 20260901113524 | 22 | 125 | 1.6 | 4.8 | 0.00 | 0.00 | 0.00 | 55 | 1020.3 |
| 20260901113003 | 22 | 151 | 0.0 | 4.8 | 0.00 | 0.00 | 0.00 | 53 | 1020.5 |
| 20260901112503 | 21 | 188 | 1.6 | 4.8 | 0.00 | 0.00 | 0.00 | 57 | 1020.5 |
| 20260901112003 | 21 | 4 | 1.6 | 4.8 | 0.00 | 0.00 | 0.00 | 59 | 1020.6 |
| 20260901111503 | 21 | 347 | 1.6 | 4.8 | 0.00 | 0.00 | 0.00 | 58 | 1020.5 |
| 20260901111004 | 22 | 168 | 1.6 | 4.8 | 0.00 | 0.00 | 0.00 | 57 | 1020.6 |
| 20260901110503 | 21 | 166 | 1.6 | 4.8 | 0.00 | 0.00 | 0.00 | 56 | 1020.9 |
| 20260901110004 | 21 | 156 | 1.6 | 4.8 | 0.00 | 0.00 | 0.00 | 57 | 1021.2 |
| 20260901105503 | 20 | 166 | 1.6 | 4.8 | 0.00 | 0.00 | 0.00 | 60 | 1020.9 |
| 20260901105003 | 20 | 198 | 1.6 | 4.8 | 0.00 | 0.00 | 0.00 | 59 | 1024.7 |
| 20260901104503 | 20 | 205 | 1.6 | 4.8 | 0.00 | 0.00 | 0.00 | 63 | 1024.7 |
| 20260901104003 | 20 | 191 | 1.6 | 3.2 | 0.00 | 0.00 | 0.00 | 62 | 1024.7 |
| 20260901103503 | 19 | 225 | 1.6 | 6.4 | 0.00 | 0.00 | 0.00 | 63 | 1025.0 |
| 20260901103003 | 19 | 237 | 1.6 | 6.4 | 0.00 | 0.00 | 0.00 | 65 | 1021.3 |
| 20260901102504 | 19 | 218 | 1.6 | 4.8 | 0.00 | 0.00 | 0.00 | 64 | 1021.4 |
| 20260901102003 | 18 | 215 | 1.6 | 4.8 | 0.00 | 0.00 | 0.00 | 68 | 1021.4 |
| 20260901101524 | 18 | 183 | 1.6 | 3.2 | 0.00 | 0.00 | 0.00 | 70 | 1021.4 |
| 20260901101024 | 17 | 216 | 1.6 | 4.8 | 0.00 | 0.00 | 0.00 | 70 | 1021.5 |
| 20260901100503 | 17 | 236 | 1.6 | 4.8 | 0.00 | 0.00 | 0.00 | 72 | 1021.5 |
| 20260901100004 | 16 | 238 | 1.6 | 3.2 | 0.00 | 0.00 | 0.00 | 75 | 1021.4 |
| 20260901095504 | 17 | 252 | 1.6 | 3.2 | 0.00 | 0.00 | 0.00 | 76 | 1025.2 |
| 20260901095003 | 17 | 245 | 1.6 | 4.8 | 0.00 | 0.00 | 0.00 | 76 | 1025.2 |
| 20260901094503 | 17 | 211 | 1.6 | 6.4 | 0.00 | 0.00 | 0.00 | 76 | 1025.3 |
| 20260901094003 | 17 | 147 | 1.6 | 6.4 | 0.00 | 0.00 | 0.00 | 73 | 1025.1 |
| 20260901093503 | 17 | 128 | 0.0 | 4.8 | 0.00 | 0.00 | 0.00 | 75 | 1025.3 |
| 20260901093003 | 17 | 158 | 0.0 | 3.2 | 0.00 | 0.00 | 0.00 | 74 | 1025.2 |
| 20260901092503 | 17 | 156 | 1.6 | 6.4 | 0.00 | 0.00 | 0.00 | 73 | 1025.2 |
| 20260901092003 | 16 | 141 | 1.6 | 6.4 | 0.00 | 0.00 | 0.00 | 75 | 1025.3 |
| 20260901091503 | 16 | 124 | 3.2 | 4.8 | 0.00 | 0.00 | 0.00 | 74 | 1025.3 |
| 20260901091003 | 16 | 107 | 3.2 | 4.8 | 0.00 | 0.00 | 0.00 | 76 | 1025.2 |
| 20260901090503 | 16 | 106 | 1.6 | 4.8 | 0.00 | 0.00 | 0.00 | 78 | 1025.4 |
| 20260901090004 | 15 | 148 | 1.6 | 4.8 | 0.00 | 0.00 | 0.00 | 77 | 1025.4 |
| 20260901085503 | 15 | 155 | 1.6 | 4.8 | 0.00 | 0.00 | 0.00 | 77 | 1025.5 |
| 20260901085003 | 16 | 148 | 1.6 | 4.8 | 0.00 | 0.00 | 0.00 | 78 | 1025.3 |
| 20260901084503 | 15 | 168 | 1.6 | 4.8 | 0.00 | 0.00 | 0.00 | 77 | 1025.3 |
| 20260901084003 | 15 | 181 | 0.0 | 3.2 | 0.00 | 0.00 | 0.00 | 79 | 1025.4 |
| 20260901083503 | 15 | 181 | 0.0 | 1.6 | 0.00 | 0.00 | 0.00 | 80 | 1025.4 |
| 20260901083003 | 14 | 196 | 0.0 | 3.2 | 0.00 | 0.00 | 0.00 | 83 | 1025.3 |
| 20260901082503 | 15 | 189 | 0.0 | 3.2 | 0.00 | 0.00 | 0.00 | 83 | 1025.3 |
| 20260901082003 | 15 | 200 | 0.0 | 3.2 | 0.00 | 0.00 | 0.00 | 82 | 1025.2 |
| 20260901081504 | 15 | 220 | 1.6 | 3.2 | 0.00 | 0.00 | 0.00 | 83 | 1025.1 |
| 20260901081003 | 15 | 222 | 1.6 | 3.2 | 0.00 | 0.00 | 0.00 | 82 | 1025.2 |
| 20260901080503 | 14 | 219 | 0.0 | 3.2 | 0.00 | 0.00 | 0.00 | 83 | 1025.1 |
| 20260901080003 | 14 | 216 | 1.6 | 3.2 | 0.00 | 0.00 | 0.00 | 83 | 1025.1 |
| 20260901075503 | 14 | 222 | 1.6 | 3.2 | 0.00 | 0.00 | 0.00 | 83 | 1025.3 |
| 20260901075003 | 14 | 227 | 1.6 | 4.8 | 0.00 | 0.00 | 0.00 | 82 | 1025.0 |
| 20260901074503 | 15 | 233 | 0.0 | 4.8 | 0.00 | 0.00 | 0.00 | 81 | 1025.1 |
| 20260901074024 | 15 | 0 | 0.0 | 0.0 | 0.00 | 0.00 | 0.00 | 78 | 1025.0 |
| 20260901073503 | 15 | 0 | 0.0 | 0.0 | 0.00 | 0.00 | 0.00 | 79 | 1024.6 |
| 20260901073024 | 14 | 0 | 0.0 | 0.0 | 0.00 | 0.00 | 0.00 | 80 | 1024.6 |
| 20260901072524 | 13 | 0 | 0.0 | 0.0 | 0.00 | 0.00 | 0.00 | 84 | 1024.9 |
| 20260901072024 | 13 | 0 | 0.0 | 0.0 | 0.00 | 0.00 | 0.00 | 84 | 1024.7 |
| 20260901071503 | 14 | 0 | 0.0 | 0.0 | 0.00 | 0.00 | 0.00 | 81 | 1024.6 |
| 20260901071003 | 13 | 0 | 0.0 | 0.0 | 0.00 | 0.00 | 0.00 | 84 | 1024.7 |
| 20260901070524 | 12 | 0 | 0.0 | 0.0 | 0.00 | 0.00 | 0.00 | 87 | 1025.0 |
| 20260901070026 | 12 | 0 | 0.0 | 0.0 | 0.00 | 0.00 | 0.00 | 88 | 1024.7 |
| 20260901065503 | 12 | 0 | 0.0 | 0.0 | 0.00 | 0.00 | 0.00 | 89 | 1024.6 |
| 20260901065003 | 11 | 0 | 0.0 | 0.0 | 0.00 | 0.00 | 0.00 | 91 | 1024.9 |
| 20260901064503 | 11 | 0 | 0.0 | 0.0 | 0.00 | 0.00 | 0.00 | 92 | 1024.7 |
| 20260901064003 | 11 | 0 | 0.0 | 0.0 | 0.00 | 0.00 | 0.00 | 93 | 1024.5 |
| 20260901063503 | 11 | 0 | 0.0 | 0.0 | 0.00 | 0.00 | 0.00 | 94 | 1024.5 |
| 20260901063003 | 11 | 0 | 0.0 | 0.0 | 0.00 | 0.00 | 0.00 | 95 | 1024.5 |
| 20260901062503 | 11 | 0 | 0.0 | 0.0 | 0.00 | 0.00 | 0.00 | 95 | 1024.6 |
| 20260901062003 | 11 | 0 | 0.0 | 0.0 | 0.00 | 0.00 | 0.00 | 96 | 1024.7 |
| 20260901061504 | 10 | 0 | 0.0 | 0.0 | 0.00 | 0.00 | 0.00 | 96 | 1024.5 |
| 20260901061024 | 10 | 0 | 0.0 | 0.0 | 0.00 | 0.00 | 0.00 | 96 | 1024.5 |